Powrót do katalogu

COSMOS 737

AktywnyMilitariaLEO
NORAD 7826·PAYLOAD·🇷🇺 Russia

Wystrzelony May 28, 1975 z Plesetsk Cosmodrome

Loading…

Następne Przeloty (najbliższe 24 godziny)

TLE

ŚwieżeSource: Space-Track

Epoka: Sep 14, 2026, 07:07 UTC

1 07826U 75045F   26257.29662105 -.00000016  00000-0  95421-6 0  9992
2 07826  74.0169 208.6816 0038020 284.0621 147.1260 12.41746100325400

Śledź COSMOS 737 w czasie rzeczywistym z AllMySat

Download on the App Store